Regional Weather Roundup
Issued by NWS Northern Indiana

Home | Current Version | Previous Version | Text Only | Print | Product List | Glossary Off
Versions: 1 2 3 4 5 6 7 8 9 10 11 12 13 14 15 16 17 18 19 20 21 22 23 24 25 26 27 28 29 30 31 32 33 34 35 36 37 38 39 40 41 42 43 44 45 46 47 48 49 50

365
ASUS43 KIWX 231200
RWRIWX

KIWX WEATHER ROUNDUP
NATIONAL WEATHER SERVICE NORTHERN INDIANA
800 AM EDT FRI JUN 23 2017

NOTE: "FAIR" INDICATES FEW OR NO CLOUDS BELOW 12,000 FEET WITH NO
SIGNIFICANT WEATHER AND/OR OBSTRUCTIONS TO VISIBILITY.

* THESE STATIONS ARE NOT UNDER NWS QUALITY CONTROL. THEY ALSO MAY NOT
  REPORT WEATHER SUCH AS PRECIPITATION OR FOG.

INZ001>027-231300-
NORTHERN INDIANA

CITY           SKY/WX    TMP DP  RH WIND       PRES   REMARKS
GARY*          LGT RAIN  68  64  88 CALM      29.67F
MICHIGAN CITY* LGT RAIN  64  64 100 CALM      29.70S
KNOX*          CLOUDY    66  66 100 NW20G30   29.71R
SOUTH BEND     PTSUNNY   67  66  97 NW15      29.68R
6HR MIN TEMP:  67; 6HR MAX TEMP:  73; 6HR PCP:  0.06;

ELKHART*       HVY RAIN  72  70  94 W17G25    29.66R
GOSHEN         LGT RAIN  73  70  90 SW7       29.64F
6HR MIN TEMP:  71; 6HR MAX TEMP:  73; 6HR PCP:  0.14;

MONTICELLO*    CLOUDY    74  72  95 W6        29.68R
6HR MIN TEMP:  71; 6HR MAX TEMP:  74; 6HR PCP:  1.08;

FORT WAYNE     TSTM      71  68  90 SW14      29.69R FOG
6HR MIN TEMP:  71; 6HR MAX TEMP:  73; 6HR PCP:  1.35;


$$
INZ028>050-231300-
CENTRAL INDIANA

CITY           SKY/WX    TMP DP  RH WIND       PRES   REMARKS
LAFAYETTE      CLOUDY    75  74  96 SW5       29.68R
6HR MIN TEMP:  72; 6HR MAX TEMP:  75; 6HR PCP:  1.10;

KOKOMO*        CLOUDY    76  72  87 SW17G23   29.70S
6HR MIN TEMP:  72; 6HR MAX TEMP:  76; 6HR PCP:  0.03;

MUNCIE*        LGT RAIN  75  72  90 W10       29.71R
6HR MIN TEMP:  72; 6HR MAX TEMP:  75; 6HR PCP:  1.56;

INDIANAPOLIS   CLOUDY    75  73  93 SW12      29.71S
6HR MIN TEMP:  72; 6HR MAX TEMP:  76; 6HR PCP:  0.03;


$$
MIZ043>046-050>051-056>058-064>065-071>073-077>080-231300-
SOUTHWEST LOWER MICHIGAN

CITY           SKY/WX    TMP DP  RH WIND       PRES   REMARKS
BATTLE CREEK   CLOUDY    72  71  97 SW12G20   29.63S
6HR MIN TEMP:  71; 6HR MAX TEMP:  75; 6HR PCP:  0.05;

BENTON HARBOR  LGT RAIN  67  63  87 CALM      29.65S
6HR MIN TEMP:  67; 6HR MAX TEMP:  75; 6HR PCP:  0.06;

COLDWATER*     CLOUDY    71  71 100 SW6       29.64S FOG
6HR MIN TEMP:  70; 6HR MAX TEMP:  73;

HILLSDALE*     CLOUDY    70  68  94 SW8       29.66R FOG
HOLLAND        LGT RAIN  68  66  93 NW5       29.65R
6HR MIN TEMP:  68; 6HR MAX TEMP:  76; 6HR PCP:  0.09;

GRAND RAPIDS   CLOUDY    68  68 100 N6        29.63R
6HR MIN TEMP:  68; 6HR MAX TEMP:  74; 6HR PCP:  0.84;

KALAMAZOO      PTSUNNY   73  68  84 W15       29.63R
6HR MIN TEMP:  71; 6HR MAX TEMP:  75; 6HR PCP:  0.11;

STURGIS*       CLOUDY    71  71  99 SW8       29.63S FOG
6HR MIN TEMP:  70; 6HR MAX TEMP:  72; 6HR PCP:  0.13;

THREE RIVERS*  LGT RAIN  72  71  98 W8        29.64R
6HR MIN TEMP:  70; 6HR MAX TEMP:  73;


$$
OHZ001>008-015>018-024>025-231300-
NORTHWEST OHIO

CITY           SKY/WX    TMP DP  RH WIND       PRES   REMARKS
DEFIANCE       LGT RAIN  71  70  96 SW6       29.65F
6HR MIN TEMP:  69; 6HR MAX TEMP:  73; 6HR PCP:  0.41;

FINDLAY        CLOUDY    75  70  84 SW14      29.67F
6HR MIN TEMP:  71; 6HR MAX TEMP:  75; 6HR PCP:  0.06;

TOLEDO EXPRESS TSTM      71  71 100 SW13      29.65F
6HR MIN TEMP:  70; 6HR MAX TEMP:  74; 6HR PCP:  0.14;

TOLEDO METCALF RAIN      72  72 100 SW8       29.66S VSB 1
6HR MIN TEMP:  70; 6HR MAX TEMP:  75; 6HR PCP:  0.22;

LIMA           CLOUDY    74  72  93 S12       29.69F
6HR MIN TEMP:  70; 6HR MAX TEMP:  74; 6HR PCP:  0.04;


$$
AND FOR LAKE MICHIGAN COASTAL AND OPEN LAKE BUOY OBSERVATIONS

STATION/POSITION TEMP    WIND        PRES    VSBY  WAVE
                 AIR SEA DIR/SP/G                  HT/PER
                 (F)     (DEG/KT/KT) (MB)    (MI)  (FT/S)
CALUMET HARBOR    65      30/  4/  7 1004.0F
MICHIGAN CITY     65     280/  3/  4   N/A
BURNS HARBOR      66     340/  3/ 10 1005.8R
SOUTH LAKE BUOY   62 61  360/ 10/ 12 1003.7          2/ 4
4 MI NW BRIDGMAN  67 69  330/  4/  8 1004.6R         3/ 3
MICHIGAN CITY     65 67  250/  2/  2   N/A           1/ 2

$$
&&




USA.gov is the U.S. government's official web portal to all federal, state and local government web resources and services.